Flag for Uruguay Weather past 2 weeks in Canelones, Uruguay

Now
50 °F

Passing clouds.


Feels Like: 44 °F
Forecast: 43 / 56 °F
Wind: 17 mph from South

Location: Carrasco

Current Time: Sep 1, 2015 at 1:06:03 AM

Latest Report: Sep 1, 2015 at 12:00 AM


Visibility: N/A

Pressure: 30.33 "Hg

Humidity: 58%

Dew point: 36 °F

Location of CanelonesLocation

Historic Weather in Canelones — Graph

°F

Canelones temperature yesterday

Maximum temperature yesterday: 64 °F (at 11:00 AM)
Minimum temperature yesterday: 50 °F (at 11:00 PM)
Average temperature yesterday: 60 °F

Past Weeks' High & Low Weather Summary

 TemperatureHumidityPressure
High77 °F (Aug 29, 1:00 PM)100% (Aug 17, 8:00 AM)30.33 "Hg (Aug 17, 8:00 AM)
Low45 °F (Aug 25, 3:00 AM)33% (Aug 28, 3:00 PM)29.68 "Hg (Aug 22, 3:00 PM)
Average58 °F76%29.99 "Hg
* Reported Midnight between Aug 16 and Aug 17 — Midnight between Aug 31 and Sep 1, Canelones, Weather by CustomWeather, © 2015

Note: Actual official high and low records may vary slightly from our data, if they occured in-between our weather recording intervals... More about our weather records

Advertising

Canelones weather history for previous 24 hours

 ConditionsComfort  
Time TempWeatherWind HumidityBarometerVisibility
12:00 AM
Tue, Sep 1
50 °FPassing clouds.17 mph58%30.33 "HgN/A
11:00 PM
Mon, Aug 31
50 °FPassing clouds.20 mph62%30.30 "HgN/A
10:00 PM52 °FPassing clouds.24 mph54%30.30 "HgN/A
9:00 PM52 °FPassing clouds.23 mph58%30.24 "HgN/A
8:00 PM55 °FClear.26 mph63%30.18 "Hg10 mi
6:00 PM59 °FClear.23 mph63%30.12 "Hg10 mi
5:00 PM61 °FSunny.17 mph63%30.07 "Hg10 mi
4:00 PM63 °FPassing clouds.17 mph73%30.04 "HgN/A
3:00 PM61 °FPartly sunny.15 mph83%30.01 "HgN/A
2:00 PM63 °FPartly sunny.15 mph83%29.95 "HgN/A
1:00 PM64 °FSunny.12 mph78%29.92 "Hg10 mi
12:00 PM63 °FSunny.8 mph77%29.92 "Hg10 mi
11:00 AM64 °FMore clouds than sun.3 mph83%29.92 "HgN/A
10:00 AM63 °FSunny.7 mph77%29.89 "Hg10 mi
9:00 AM61 °FSunny.12 mph88%29.89 "Hg10 mi
8:00 AM59 °FSunny.13 mph82%29.86 "Hg10 mi
7:00 AM59 °FCool.No wind88%29.89 "HgN/A
6:00 AM61 °FClear.17 mph77%29.86 "Hg10 mi
5:00 AM59 °FClear.17 mph82%29.86 "Hg10 mi
4:00 AM63 °FClear.12 mph73%29.83 "Hg10 mi
3:00 AM61 °FClear.15 mph77%29.89 "Hg10 mi
2:00 AM61 °FClear.15 mph77%29.89 "Hg10 mi
1:00 AM61 °FClear.13 mph77%29.92 "Hg10 mi
Weather by CustomWeather, © 2015

See weather overviewHow to use our weather pages